Theta_e
282 283 283 282 281 282 280 280 277 279 279 283 285 286 284 286 288 287 287 290 289 288 289 290 292 294 294 296 297 297 299 299 300 301 301 303 303 303 303 302 302 301 299 298
278 282 281 279 280 280 281 281 280 280 279 285 287 286 285 286 286 286 286 289 287 287 287 288 289 290 292 295 295 296 296 297 300 300 300 300 300 299 300 300 300 300 298 297
273 278 277 272 278 278 279 281 280 275 279 282 282 283 283 283 284 285 287 287 287 287 287 288 288 289 289 291 294 295 295 296 299 297 297 297 298 297 296 297 298 297 296 295
271 275 260 275 280 280 279 279 280 279 281 282 282 283 283 284 283 285 286 287 288 287 287 288 288 288 288 290 292 293 294 295 297 295 294 293 294 294 292 292 296 296 295 294
263 268 273 276 278 277 277 277 281 280 281 281 282 282 281 284 285 286 287 287 288 288 287 288 287 288 288 288 289 291 293 294 294 292 290 290 290 290 289 290 291 293 293 291
266 259 259 274 278 281 279 272 280 279 278 279 280 275 279 284 285 285 286 287 287 288 288 287 288 288 287 287 287 288 290 292 291 291 290 289 287 285 284 288 288 288 287 288
264 262 271 279 280 281 271 273 279 281 280 279 278 280 283 285 285 287 287 287 288 288 288 288 289 287 286 286 285 289 290 289 289 288 287 288 288 287 287 287 287 286 286 286
266 257 262 279 279 275 278 281 281 281 281 281 282 283 284 285 286 287 287 288 288 287 287 288 288 286 285 285 287 289 288 287 287 287 287 288 287 286 287 287 286 285 284 285
272 271 279 280 280 282 281 280 281 281 283 283 285 285 287 287 287 288 288 288 289 288 288 289 288 287 286 288 287 287 286 286 286 287 286 286 286 286 286 286 285 284 284 284
275 276 278 279 282 282 283 283 284 287 287 287 286 286 286 287 288 288 289 289 289 289 288 288 288 286 286 287 285 286 285 285 285 285 285 285 285 286 286 285 285 284 283 283
276 278 279 280 281 284 286 287 287 287 287 286 285 284 284 284 285 286 287 289 290 289 289 288 287 287 288 286 286 285 285 285 285 285 285 284 284 285 285 285 286 284 284 283
271 278 278 280 285 288 285 284 284 284 283 285 285 284 285 285 286 287 287 288 288 289 288 289 287 288 287 287 287 285 285 284 284 284 283 283 282 282 285 284 285 285 285 284
278 281 286 287 287 287 283 283 283 284 285 285 285 286 286 285 286 286 287 288 288 288 288 290 289 287 285 287 286 285 284 284 283 283 282 281 281 281 280 283 285 285 285 285
286 287 282 284 281 284 283 283 284 284 285 285 285 285 285 285 286 286 286 286 287 287 286 284 282 284 283 286 285 284 284 283 282 281 281 280 280 280 280 279 279 281 284 283
286 287 284 284 282 281 282 281 282 282 283 284 285 284 284 284 284 285 286 286 286 285 285 285 285 285 285 285 284 283 283 281 278 280 281 280 280 280 280 279 279 280 281 282
283 283 282 280 279 280 280 280 280 281 282 282 283 284 284 284 285 286 286 286 284 284 285 284 284 285 285 285 283 283 282 279 278 280 280 280 280 279 279 278 278 279 279 280
279 279 280 279 280 280 280 280 280 281 282 281 282 283 283 283 284 285 285 284 283 283 283 283 284 285 284 284 283 283 281 278 278 279 278 278 278 278 278 278 278 278 279 280
282 281 280 280 277 278 280 281 281 281 281 282 282 282 281 282 281 283 284 284 283 283 282 282 283 283 284 284 284 282 281 278 278 278 278 277 276 276 276 276 276 276 274 274
282 281 280 280 279 277 278 279 280 281 281 281 280 280 282 282 282 282 284 283 283 282 281 280 282 283 283 284 284 282 280 278 278 278 277 276 275 274 273 272 273 275 274 273
280 281 281 280 281 279 278 280 279 279 282 280 280 280 280 281 282 281 281 281 282 282 282 282 283 283 283 284 283 282 280 279 278 278 276 275 274 272 271 270 271 273 273 271
280 280 280 280 279 277 273 273 272 274 278 279 278 278 279 280 282 282 279 278 281 280 280 280 281 282 283 283 283 281 280 279 278 278 276 275 273 272 271 270 269 269 267 266
279 275 274 273 273 273 274 273 274 270 270 279 279 277 278 277 279 281 282 279 280 279 280 280 280 282 282 282 282 281 280 279 279 278 277 276 274 273 272 271 270 270 270 269
275 274 273 269 269 273 269 269 267 268 268 272 272 274 275 276 278 279 279 283 282 281 280 280 280 279 277 277 279 280 280 279 278 278 277 277 275 273 272 271 270 270 267 267
275 273 272 272 267 268 269 272 270 274 269 271 270 271 272 275 275 278 281 283 283 280 279 279 280 280 273 274 275 277 279 279 279 278 277 274 273 271 270 269 268 268 267 266
279 278 273 270 273 274 273 274 277 271 270 273 271 273 275 275 272 276 278 281 283 280 278 278 279 279 278 273 274 275 277 277 276 274 271 269 268 268 268 268 267 267 265 266
279 279 277 277 276 274 273 278 276 270 270 269 269 270 271 273 274 274 275 277 281 281 279 278 275 276 277 277 275 275 274 273 271 270 269 269 269 268 268 268 267 266 266 266
280 277 277 277 276 275 277 275 271 268 269 268 268 270 271 271 271 271 272 275 278 280 280 279 277 276 276 276 274 272 270 270 269 270 270 270 270 270 269 268 268 268 267 266
Wind_Speed
1 4 2 6 8 8 9 10 10 18 19 18 14 11 7 7 12 10 11 9 7 6 7 6 7 6 7 6 5 6 7 7 9 9 6 7 5 5 5 7 7 7 7 7
2 4 6 13 12 10 11 12 14 18 18 13 13 7 7 9 8 11 14 8 7 7 7 7 7 7 7 6 7 5 6 7 7 6 6 5 4 4 5 5 6 7 8 8
4 3 3 8 6 5 4 10 11 10 7 5 5 5 6 8 10 13 11 7 7 8 8 8 8 7 8 8 6 7 7 7 6 5 6 6 4 3 6 7 8 7 7 9
3 4 3 6 4 4 7 11 10 7 10 7 5 6 9 9 9 11 9 11 12 8 8 8 7 8 7 6 7 7 8 7 7 6 6 5 6 5 2 4 8 8 8 8
4 3 6 8 5 2 4 11 10 13 10 5 9 8 14 9 8 11 13 14 15 13 9 12 10 11 7 8 7 7 8 7 6 6 6 6 7 5 3 4 4 6 7 8
3 5 7 5 4 3 1 12 5 4 5 13 11 11 15 14 14 15 15 14 15 14 14 10 15 10 7 8 7 9 9 8 3 6 6 7 7 5 3 3 4 4 5 7
2 3 8 6 5 2 3 8 7 13 14 12 10 11 16 17 19 17 16 17 16 15 13 14 13 8 8 8 9 10 7 4 3 4 7 6 6 2 3 3 5 5 6 6
3 3 8 3 2 4 6 15 13 14 14 14 15 17 16 18 19 19 18 17 16 13 12 13 10 6 9 8 9 4 4 2 4 4 3 6 5 3 3 5 6 6 7 6
8 8 5 4 7 9 7 13 12 12 13 13 18 21 20 19 19 20 19 18 14 14 14 13 9 7 9 10 5 4 3 4 5 6 4 4 4 4 3 5 6 6 7 7
1 3 9 6 9 7 7 13 13 13 19 18 19 19 22 19 19 19 18 17 14 15 16 16 11 9 8 6 6 6 5 5 3 4 5 2 3 3 4 5 6 7 7 8
5 9 7 6 4 5 12 14 16 16 16 18 19 20 21 20 20 18 19 18 15 14 13 14 9 9 8 6 5 5 5 4 3 3 3 1 1 2 2 1 4 7 7 9
6 7 6 9 6 12 13 13 16 16 18 18 18 19 19 18 18 18 17 16 16 14 16 16 9 12 6 5 5 4 4 3 3 3 2 2 2 2 4 4 5 6 11 10
5 1 8 11 12 9 9 15 16 17 17 19 19 17 19 19 17 21 19 17 15 13 14 13 12 12 5 6 7 6 5 4 2 2 2 2 2 3 4 5 10 11 12 15
6 4 4 2 6 11 10 13 15 16 15 15 16 15 16 17 18 18 15 14 12 10 9 10 10 12 6 7 6 4 4 5 3 3 3 3 3 3 4 5 5 6 12 14
4 3 5 5 6 7 8 11 15 16 18 19 16 15 16 17 17 16 14 10 8 7 8 8 11 5 4 6 6 5 4 3 3 3 3 4 4 4 5 6 6 6 8 11
2 4 5 5 7 7 9 11 12 15 15 17 18 17 18 16 16 15 15 10 6 6 5 4 4 1 3 5 5 5 4 6 5 4 4 4 4 5 5 6 6 6 7 8
2 4 2 5 6 9 9 9 10 13 14 16 18 18 17 16 14 13 12 6 4 4 5 3 2 1 3 5 5 4 4 4 6 4 4 4 5 5 5 6 6 6 6 7
5 3 5 6 6 8 10 10 10 12 13 15 16 16 15 15 14 14 13 7 5 4 3 3 2 3 4 6 6 5 5 4 4 5 4 5 5 5 5 6 6 7 4 4
6 6 6 5 5 6 7 9 10 11 12 12 15 16 14 12 13 13 12 9 7 7 5 4 4 4 4 6 6 5 6 6 5 5 5 7 5 5 5 6 6 7 6 6
6 5 5 5 5 3 6 7 8 9 12 11 14 15 15 15 13 12 11 10 8 6 6 5 4 4 4 6 7 5 6 6 6 6 5 5 5 5 5 5 7 8 7 6
7 5 6 6 5 5 5 5 5 7 10 11 13 15 16 15 14 12 10 8 8 6 7 7 4 2 2 5 6 5 6 6 6 7 6 6 6 6 6 5 6 6 5 5
4 5 6 5 5 6 6 5 5 6 5 10 11 10 12 14 15 13 8 7 6 8 5 4 2 3 2 6 4 6 6 6 6 6 6 6 6 6 6 6 6 6 6 6
6 5 5 5 6 6 4 5 5 4 6 6 6 9 9 9 9 11 12 10 7 7 4 3 4 3 3 2 3 5 6 7 6 6 6 6 6 6 7 7 6 6 6 6
4 5 6 5 2 2 5 6 5 6 5 7 6 6 7 9 9 7 11 14 13 8 5 3 3 2 3 1 2 3 4 5 5 5 6 6 6 5 5 6 6 5 5 6
6 5 3 3 5 5 5 4 5 4 4 5 6 6 8 5 4 10 11 12 15 9 5 5 5 5 3 3 2 3 4 4 4 4 5 5 5 5 5 5 5 6 5 5
2 3 3 5 4 2 2 4 4 2 3 5 5 5 6 6 7 8 9 12 12 10 6 4 4 4 4 4 4 4 4 4 5 5 6 5 6 5 6 5 5 6 6 6
3 3 3 3 2 1 1 1 1 3 4 5 7 7 8 7 8 8 9 10 11 11 7 5 4 5 5 4 4 4 4 4 5 5 5 5 6 6 6 6 7 6 6 6
Wind_Direction
254 114 172 247 255 252 252 253 252 289 281 282 278 276 246 274 287 299 304 300 289 295 312 316 324 319 314 304 300 302 305 279 263 266 249 261 247 196 191 177 187 194 175 170
290 196 231 263 264 262 250 257 249 256 273 280 265 263 275 275 290 289 283 274 291 299 301 304 304 304 305 296 298 296 288 278 287 300 306 302 306 194 186 182 175 188 179 164
253 78 341 288 240 230 229 254 268 279 280 309 289 286 295 290 290 293 275 268 282 275 276 280 282 278 281 295 301 297 289 286 274 292 304 309 300 202 193 199 170 187 180 168
264 83 294 260 332 254 254 274 274 273 286 281 290 289 286 267 265 287 277 283 283 267 274 274 270 282 283 284 289 290 286 279 281 294 297 310 319 287 210 183 191 175 186 175
147 190 299 296 300 206 231 278 271 282 306 323 312 306 290 275 265 265 273 288 290 281 273 273 268 272 269 280 279 278 276 272 272 285 299 315 310 297 211 172 177 177 179 166
95 145 225 252 258 219 54 277 294 360 299 310 323 308 290 301 297 289 282 281 283 280 288 283 278 273 269 277 286 281 281 256 230 284 285 290 300 298 228 175 151 148 141 154
161 215 280 262 279 42 227 273 320 319 305 295 282 267 279 292 288 282 279 278 274 280 274 268 273 261 260 267 266 269 267 210 257 267 286 286 293 254 212 163 136 148 138 146
86 73 280 208 286 218 257 299 299 290 287 279 279 284 285 284 284 286 286 283 279 275 273 270 267 252 262 261 264 237 239 232 251 252 258 281 276 265 202 155 155 151 138 142
174 212 217 198 228 265 272 285 293 289 295 290 292 293 295 294 293 289 286 282 277 278 279 282 271 236 255 268 198 197 202 257 269 276 253 267 235 194 188 166 164 161 161 152
68 248 253 280 283 291 291 288 295 296 299 296 295 300 295 296 298 295 288 284 280 278 277 279 272 261 248 252 194 181 211 221 233 258 276 254 260 220 184 170 168 164 163 153
257 281 291 258 263 294 305 307 305 307 306 301 300 298 295 293 292 290 289 290 283 276 270 274 269 261 252 208 185 198 204 209 206 225 217 184 290 244 211 193 183 169 166 158
226 233 219 286 295 309 305 311 310 309 308 303 298 295 294 289 289 289 287 286 285 279 288 279 267 273 237 183 168 182 194 212 209 188 126 152 147 78 63 127 138 150 154 153
251 261 278 280 284 289 314 309 309 307 305 300 302 300 300 295 292 290 286 282 273 272 275 283 288 273 183 171 182 182 193 192 166 145 155 157 137 123 118 98 114 124 126 128
231 294 303 294 301 315 306 308 310 309 310 308 307 305 300 296 298 298 291 283 274 273 283 288 283 279 179 164 168 174 164 162 145 137 136 134 122 115 114 114 113 117 118 127
246 197 252 284 302 299 309 315 323 327 327 324 321 311 311 310 308 303 294 285 274 272 283 291 298 286 166 153 152 150 146 133 118 120 124 122 117 111 104 107 109 111 118 121
252 286 285 290 291 298 322 330 323 323 328 328 323 320 317 312 309 309 306 302 289 301 313 298 297 175 142 133 137 133 132 135 128 130 127 123 122 117 116 115 116 119 126 131
165 286 281 287 306 319 308 301 303 308 315 323 324 320 316 317 320 322 329 330 338 349 346 336 320 138 147 146 151 147 136 135 141 125 130 129 128 124 128 127 126 126 125 131
189 218 236 241 264 282 299 305 309 310 313 317 322 323 322 326 329 327 327 321 313 312 305 283 255 193 186 169 161 144 137 141 148 139 130 129 125 121 112 119 118 126 112 84
197 228 241 251 262 271 284 298 304 311 312 317 328 331 325 321 324 326 326 317 313 318 319 293 265 239 207 189 163 147 141 144 140 134 131 124 125 128 131 132 137 144 134 128
215 226 243 266 275 242 283 292 304 310 323 325 330 336 338 336 328 323 327 318 304 296 313 306 291 241 205 172 159 149 146 148 147 141 140 138 140 138 128 129 139 146 148 146
227 239 244 252 266 275 263 272 284 297 315 331 337 335 333 328 335 328 327 326 322 325 314 307 285 255 190 166 163 152 150 154 153 152 152 149 142 144 145 143 143 145 143 144
211 221 237 247 254 273 274 277 283 294 299 335 329 321 328 331 331 330 317 277 300 316 307 301 287 249 196 168 156 155 156 156 153 150 152 154 156 155 153 152 153 150 154 155
218 225 232 233 241 253 285 275 270 262 275 282 304 315 321 318 322 326 330 331 307 302 291 286 275 255 173 126 149 155 158 158 161 163 162 161 158 155 154 159 158 154 152 153
222 227 235 238 230 239 273 275 257 266 260 288 288 292 305 323 322 317 318 315 310 294 273 270 270 235 159 161 144 147 157 162 163 159 156 150 153 147 146 152 156 153 145 144
217 242 237 241 248 254 244 252 282 295 306 306 304 305 306 300 276 311 315 314 316 306 272 259 255 242 208 173 182 172 165 162 159 151 149 148 149 151 149 149 151 158 152 157
267 251 249 250 242 245 248 285 296 281 298 303 297 297 296 300 303 306 311 312 314 305 280 254 227 220 209 190 189 191 180 165 160 163 161 159 157 157 159 156 151 155 160 162
300 241 246 264 211 195 8 20 295 296 303 299 295 300 303 305 303 305 305 315 317 315 294 264 221 217 214 195 188 189 177 171 168 166 165 162 165 166 164 163 163 159 149 148